When you browse on this site, cookies collect data to enhance your experience and personalize the content and advertising you see.
Visit our Privacy Policy to learn more. By continuing to use the site, you agree to this use of cookies and data.
  • în România
  • Lista ţărilor
  • Pe 7 zile
  • Temperatura apei
  • Meteo pe hartă
  • Widget-uri
  • user-avatar
    Intrare

    Meteo pe oră la Saumur

    Astăzi, 19 Septembrie, Joi

    Timp Temperatura Precipitaţii Vânt Presiune Umiditate
    00:00 +13°C° 0 mm 5 m/s 765 mmHg 56%
    01:00 +13°C° 0 mm 5 m/s 765 mmHg 59%
    02:00 +12°C° 0 mm 5 m/s 765 mmHg 61%
    03:00 +12°C° 0 mm 5 m/s 765 mmHg 64%
    04:00 +10°C° 0 mm 6 m/s 765 mmHg 65%
    05:00 +10°C° 0 mm 6 m/s 765 mmHg 66%
    06:00 +10°C° 0 mm 6 m/s 765 mmHg 68%
    07:00 +13°C° 0 mm 6 m/s 765 mmHg 59%
    08:00 +15°C° 0 mm 7 m/s 766 mmHg 51%
    09:00 +17°C° 0 mm 8 m/s 766 mmHg 42%
    10:00 +18°C° 0 mm 8 m/s 765 mmHg 38%
    11:00 +21°C° 0 mm 8 m/s 765 mmHg 34%
    12:00 +22°C° 0 mm 8 m/s 765 mmHg 31%
    13:00 +23°C° 0 mm 8 m/s 764 mmHg 29%
    14:00 +23°C° 0 mm 8 m/s 764 mmHg 27%
    15:00 +24°C° 0 mm 8 m/s 764 mmHg 25%
    16:00 +22°C° 0 mm 7 m/s 764 mmHg 28%
    17:00 +21°C° 0 mm 6 m/s 763 mmHg 30%
    18:00 +19°C° 0 mm 6 m/s 763 mmHg 32%
    19:00 +17°C° 0 mm 6 m/s 764 mmHg 36%
    20:00 +16°C° 0 mm 6 m/s 764 mmHg 39%
    21:00 +15°C° 0 mm 6 m/s 764 mmHg 43%
    22:00 +15°C° 0 mm 6 m/s 764 mmHg 44%
    23:00 +14°C° 0 mm 6 m/s 764 mmHg 45%

    Mâine, 20 Septembrie, Vineri

    Timp Temperatura Precipitaţii Vânt Presiune Umiditate
    00:00 +14°C° 0 mm 6 m/s 764 mmHg 46%
    01:00 +13°C° 0 mm 6 m/s 763 mmHg 48%
    02:00 +11°C° 0 mm 6 m/s 763 mmHg 50%
    03:00 +10°C° 0 mm 6 m/s 763 mmHg 51%
    04:00 +10°C° 0 mm 5 m/s 762 mmHg 53%
    05:00 +9°C° 0 mm 5 m/s 762 mmHg 55%
    06:00 +8°C° 0 mm 5 m/s 762 mmHg 57%
    07:00 +11°C° 0 mm 6 m/s 762 mmHg 51%
    08:00 +14°C° 0 mm 6 m/s 762 mmHg 45%
    09:00 +16°C° 0 mm 6 m/s 762 mmHg 39%
    10:00 +19°C° 0 mm 6 m/s 761 mmHg 35%
    11:00 +21°C° 0 mm 6 m/s 760 mmHg 31%
    12:00 +24°C° 0 mm 6 m/s 760 mmHg 28%
    13:00 +26°C° 0 mm 5 m/s 759 mmHg 27%
    14:00 +27°C° 0 mm 5 m/s 758 mmHg 26%
    15:00 +28°C° 0 mm 4 m/s 758 mmHg 26%
    16:00 +26°C° 0 mm 4 m/s 758 mmHg 29%
    17:00 +25°C° 0 mm 4 m/s 757 mmHg 32%
    18:00 +22°C° 0 mm 3 m/s 757 mmHg 35%
    19:00 +21°C° 0 mm 3 m/s 757 mmHg 37%
    20:00 +20°C° 0 mm 3 m/s 757 mmHg 39%
    21:00 +19°C° 0 mm 3 m/s 757 mmHg 41%
    22:00 +19°C° 0.2 mm 3 m/s 757 mmHg 49%
    23:00 +18°C° 0.2 mm 3 m/s 757 mmHg 57%

    Poimâine, 21 Septembrie, Sâmbătă

    Timp Temperatura Precipitaţii Vânt Presiune Umiditate
    00:00 +18°C° 0.2 mm 3 m/s 756 mmHg 66%
    01:00 +18°C° 0.2 mm 3 m/s 756 mmHg 73%
    02:00 +17°C° 0.2 mm 3 m/s 756 mmHg 80%
    03:00 +17°C° 0.2 mm 3 m/s 756 mmHg 87%
    04:00 +17°C° 0 mm 3 m/s 755 mmHg 88%
    05:00 +17°C° 0 mm 4 m/s 755 mmHg 90%
    06:00 +17°C° 0 mm 4 m/s 755 mmHg 91%
    07:00 +19°C° 0 mm 4 m/s 755 mmHg 81%
    08:00 +21°C° 0 mm 5 m/s 755 mmHg 72%
    09:00 +23°C° 0 mm 6 m/s 755 mmHg 63%
    10:00 +26°C° 0 mm 6 m/s 754 mmHg 55%
    11:00 +28°C° 0 mm 6 m/s 754 mmHg 47%
    12:00 +30°C° 0 mm 6 m/s 754 mmHg 39%
    13:00 +32°C° 0 mm 6 m/s 753 mmHg 37%
    14:00 +32°C° 0 mm 5 m/s 753 mmHg 35%
    15:00 +33°C° 0 mm 5 m/s 752 mmHg 34%
    16:00 +29°C° 0.4 mm 5 m/s 752 mmHg 45%
    17:00 +27°C° 0.4 mm 5 m/s 752 mmHg 56%
    18:00 +23°C° 0.4 mm 5 m/s 752 mmHg 67%
    19:00 +22°C° 1.3 mm 5 m/s 752 mmHg 73%
    20:00 +21°C° 1.3 mm 4 m/s 752 mmHg 79%
    21:00 +20°C° 1.3 mm 3 m/s 752 mmHg 85%
    22:00 +20°C° 0 mm 4 m/s 751 mmHg 85%
    23:00 +19°C° 0 mm 4 m/s 751 mmHg 85%

    22 Septembrie, Duminică

    Timp Temperatura Precipitaţii Vânt Presiune Umiditate
    00:00 +19°C° 0 mm 5 m/s 751 mmHg 86%
    01:00 +19°C° 0.2 mm 5 m/s 751 mmHg 86%
    02:00 +20°C° 0.2 mm 5 m/s 751 mmHg 86%
    03:00 +20°C° 0.2 mm 5 m/s 751 mmHg 86%
    04:00 +19°C° 0.5 mm 4 m/s 751 mmHg 87%
    05:00 +17°C° 0.5 mm 4 m/s 752 mmHg 88%
    06:00 +15°C° 0.5 mm 4 m/s 752 mmHg 89%
    07:00 +16°C° 0.3 mm 5 m/s 753 mmHg 84%
    08:00 +17°C° 0.3 mm 5 m/s 753 mmHg 79%
    09:00 +19°C° 0.3 mm 6 m/s 754 mmHg 74%
    10:00 +20°C° 0 mm 6 m/s 754 mmHg 67%
    11:00 +21°C° 0 mm 7 m/s 754 mmHg 59%
    12:00 +22°C° 0 mm 7 m/s 754 mmHg 51%
    13:00 +22°C° 0.1 mm 8 m/s 754 mmHg 52%
    14:00 +22°C° 0.1 mm 8 m/s 754 mmHg 53%
    15:00 +21°C° 0.1 mm 9 m/s 754 mmHg 54%
    16:00 +20°C° 0.1 mm 7 m/s 754 mmHg 60%
    17:00 +19°C° 0.1 mm 6 m/s 755 mmHg 66%
    18:00 +16°C° 0.1 mm 5 m/s 755 mmHg 72%
    19:00 +15°C° 0 mm 4 m/s 756 mmHg 75%
    20:00 +15°C° 0 mm 4 m/s 756 mmHg 78%
    21:00 +14°C° 0 mm 3 m/s 757 mmHg 81%
    22:00 +13°C° 0 mm 3 m/s 757 mmHg 84%
    23:00 +12°C° 0 mm 3 m/s 758 mmHg 87%

    23 Septembrie, Luni

    Timp Temperatura Precipitaţii Vânt Presiune Umiditate
    00:00 +12°C° 0 mm 3 m/s 758 mmHg 90%
    01:00 +12°C° 0 mm 3 m/s 758 mmHg 91%
    02:00 +12°C° 0 mm 3 m/s 758 mmHg 92%
    03:00 +12°C° 0 mm 3 m/s 758 mmHg 93%
    04:00 +12°C° 0 mm 3 m/s 758 mmHg 93%
    05:00 +12°C° 0 mm 3 m/s 758 mmHg 92%
    06:00 +13°C° 0 mm 3 m/s 758 mmHg 92%
    07:00 +16°C° 0 mm 3 m/s 759 mmHg 81%
    08:00 +17°C° 0 mm 4 m/s 759 mmHg 71%
    09:00 +19°C° 0 mm 4 m/s 759 mmHg 61%
    10:00 +20°C° 0.1 mm 5 m/s 759 mmHg 62%
    11:00 +20°C° 0.1 mm 5 m/s 759 mmHg 63%
    12:00 +20°C° 0.1 mm 6 m/s 758 mmHg 64%
    13:00 +20°C° 0.1 mm 6 m/s 758 mmHg 63%
    14:00 +20°C° 0.1 mm 5 m/s 758 mmHg 62%
    15:00 +20°C° 0.1 mm 5 m/s 758 mmHg 61%
    16:00 +19°C° 0.9 mm 5 m/s 758 mmHg 71%
    17:00 +16°C° 0.9 mm 5 m/s 758 mmHg 81%
    18:00 +15°C° 0.9 mm 5 m/s 758 mmHg 91%
    19:00 +15°C° 0.4 mm 5 m/s 758 mmHg 90%
    20:00 +15°C° 0.4 mm 5 m/s 758 mmHg 89%
    21:00 +16°C° 0.4 mm 5 m/s 759 mmHg 88%
    22:00 +16°C° 0 mm 5 m/s 759 mmHg 88%
    23:00 +16°C° 0 mm 5 m/s 758 mmHg 89%

    24 Septembrie, Marţi

    Timp Temperatura Precipitaţii Vânt Presiune Umiditate
    00:00 +16°C° 0 mm 5 m/s 758 mmHg 90%
    01:00 +16°C° 0 mm 5 m/s 758 mmHg 90%
    02:00 +17°C° 0 mm 4 m/s 758 mmHg 90%
    03:00 +18°C° 0 mm 4 m/s 758 mmHg 91%
    04:00 +18°C° 0 mm 4 m/s 758 mmHg 91%
    05:00 +18°C° 0 mm 4 m/s 757 mmHg 91%
    06:00 +18°C° 0 mm 4 m/s 757 mmHg 91%
    07:00 +17°C° 0.4 mm 5 m/s 757 mmHg 90%
    08:00 +17°C° 0.4 mm 5 m/s 757 mmHg 89%
    09:00 +17°C° 0.4 mm 6 m/s 757 mmHg 88%
    10:00 +17°C° 0.5 mm 6 m/s 757 mmHg 86%
    11:00 +19°C° 0.5 mm 6 m/s 756 mmHg 83%
    12:00 +20°C° 0.5 mm 6 m/s 756 mmHg 81%
    13:00 +19°C° 1.2 mm 6 m/s 756 mmHg 84%
    14:00 +18°C° 1.2 mm 7 m/s 755 mmHg 87%
    15:00 +18°C° 1.2 mm 7 m/s 755 mmHg 89%
    16:00 +18°C° 0.1 mm 7 m/s 755 mmHg 89%
    17:00 +19°C° 0.1 mm 6 m/s 755 mmHg 89%
    18:00 +20°C° 0.1 mm 6 m/s 755 mmHg 89%
    19:00 +19°C° 0.1 mm 5 m/s 755 mmHg 90%
    20:00 +19°C° 0.1 mm 5 m/s 755 mmHg 92%
    21:00 +19°C° 0.1 mm 5 m/s 755 mmHg 93%
    22:00 +18°C° 0 mm 4 m/s 755 mmHg 94%
    23:00 +17°C° 0 mm 4 m/s 755 mmHg 95%
    Arată mai mult